{"data":{"norad_id":58678,"epoch":"2026-05-24T23:54:13.400352Z","epoch_age_seconds":85865,"freshness":"FRESH","line1":"1 58678U 23211M   26144.99598843  .00000124  00000+0  14043-4 0  9997","line2":"2 58678  43.0025  14.4320 0000936 267.1620  92.9125 15.27572870135300","mean_motion":15.2757287,"eccentricity":9.36e-5,"inclination_deg":43.0025,"raan_deg":14.432,"arg_perigee_deg":267.162,"mean_anomaly_deg":92.9125,"bstar":1.4043e-5,"rev_number":13530,"period_min":94.267188707011,"perigee_km":482.42823689076,"apogee_km":483.71265492464,"semimajor_km":6861.2074459077,"source":"CELESTRAK","updated_at":"2026-05-25T13:38:18.712088Z"}}